レモン彗星

C/2021 T4 ( Lemmon )

English version
Home page
Updated on September 11, 2022

---------------------------------------------------------------------

・ プロフィール

発見日 2021年10月7日
発見光度 20.2等
発見者 Mount Lemmon

・ 写真集

・ 軌道要素

Epoch 2022 Aug. 9.0 TT = JDT 2459800.5
T 2023 July 31.51568 TT                                 Rudenko
q   1.4819373            (2000.0)            P               Q
z  +0.0000147      Peri.  329.78017     +0.28185577     -0.90376405
 +/-0.0000150      Node   257.79970     -0.80104470     -0.40645646
e   0.9999783      Incl.  160.75710     -0.52809536     +0.13417783
From 247 observations 2021 Aug. 7-2022 Sept. 8, mean residual 0".5.

・ 星図

・ 光度変化

        m1 = 7.5 + 5 logΔ + 10.0 log r

---------------------------------------------------------------------

軌道要素はM.P.E.C. 2022-R139に掲載されたものです。
星図はステラナビゲータ Ver.10 (アストロアーツ) で作成したものです。
光度グラフはComet for Windowsで作成したものです。

---------------------------------------------------------------------

Copyright(C) Seiichi Yoshida (comet@aerith.net). All rights reserved.